EHI
0 0 0 0 0 1 2 2 1 0 0 0 0 1 2 3 3 3 2 3 4 5 6 8 11 12 12 11 9 7 6 4 3 3 3 3 3 3 3 2 1 0 0
0 0 0 0 0 0 1 1 1 0 0 1 1 1 2 3 3 4 3 3 3 4 5 6 8 10 11 11 9 8 6 4 3 3 3 3 3 3 3 3 2 1 0
0 0 0 0 0 0 0 0 0 0 0 1 2 2 3 4 4 5 4 2 1 3 4 4 6 8 9 10 11 10 6 4 4 4 4 3 3 3 3 3 3 1 1
0 0 0 0 0 0 0 0 0 0 0 1 3 3 4 5 5 5 4 2 1 2 3 3 5 6 7 9 11 10 7 4 4 5 4 4 3 3 3 3 3 3 2
0 0 0 0 0 0 0 0 0 0 0 1 3 3 3 4 5 4 3 3 2 2 1 1 3 5 6 8 10 10 8 5 5 5 4 4 3 3 3 3 3 3 3
0 0 0 0 0 0 0 0 0 0 1 2 3 3 3 3 3 3 3 3 3 2 0 0 1 3 4 6 8 9 9 7 7 5 5 5 4 3 3 3 3 3 3
0 0 0 0 0 0 0 0 0 1 2 3 3 3 3 2 1 2 2 2 3 2 1 1 1 1 3 4 6 8 9 9 8 6 5 4 3 3 3 3 3 3 3
0 0 0 1 0 0 0 0 1 2 3 3 3 3 3 2 2 2 3 3 3 3 3 2 2 2 3 3 4 6 7 8 7 7 5 5 4 3 3 3 3 3 3
1 1 1 1 1 1 1 1 2 3 3 3 3 3 3 3 3 3 3 3 3 3 3 2 2 2 2 3 3 4 4 5 6 6 6 6 5 4 4 3 3 3 3
4 4 3 2 2 2 2 3 3 3 3 3 3 3 3 3 3 3 3 3 3 2 1 1 1 1 1 1 1 1 1 2 3 4 5 6 5 5 5 4 4 4 4
5 6 5 4 3 3 3 3 3 3 3 3 3 3 3 3 3 3 3 2 1 1 0 0 0 0 0 0 0 0 0 0 1 1 3 3 3 4 6 6 5 4 4
5 6 6 5 4 3 3 3 3 3 3 3 3 3 3 3 2 2 1 1 0 0 0 0 0 0 0 0 0 0 0 0 0 0 1 1 1 3 5 6 5 4 4
5 6 6 6 5 4 3 3 3 3 3 3 3 2 2 1 1 1 0 0 0 0 0 0 0 0 0 0 0 0 0 0 0 0 0 0 1 1 3 4 4 3 3
6 5 4 4 5 4 3 3 3 3 3 2 1 1 1 0 0 0 0 0 0 0 0 0 0 0 0 0 0 0 0 0 0 0 0 0 1 1 1 2 3 3 3
6 5 4 4 5 4 4 3 3 2 1 1 0 0 0 0 0 0 0 0 0 0 0 0 0 0 0 0 0 0 0 0 0 0 0 0 0 0 0 1 1 2 1
6 6 6 6 5 4 3 2 1 1 0 0 0 0 0 0 1 1 0 0 0 0 0 0 0 0 0 0 0 0 0 0 0 0 0 0 0 0 0 0 0 0 0
6 6 6 6 6 4 2 1 1 1 0 0 0 1 1 1 2 2 1 0 0 0 0 0 0 0 0 0 0 0 0 0 0 0 0 0 0 0 0 0 0 0 0
4 6 6 6 5 4 3 2 2 1 0 0 0 1 2 2 3 3 2 1 0 0 0 0 0 0 0 0 0 0 0 0 0 0 0 0 0 0 0 0 0 0 0
2 4 5 5 3 3 2 1 1 1 0 0 0 1 2 3 3 2 3 2 1 0 0 0 0 0 0 0 0 0 0 0 0 0 0 0 0 0 0 0 0 0 0
1 3 3 2 2 1 1 1 1 0 1 1 1 2 3 3 3 3 3 3 2 0 0 0 0 0 0 0 0 0 0 0 0 0 0 0 0 0 0 0 0 0 0
2 2 2 2 2 2 1 1 1 1 1 1 1 2 3 3 2 2 3 3 2 1 1 1 0 0 0 0 0 0 0 0 0 0 0 0 0 0 0 0 0 0 0
3 3 3 4 4 3 2 1 1 1 2 2 3 3 2 1 1 1 1 1 1 1 1 1 1 1 0 0 0 0 0 0 0 0 0 0 0 0 0 0 0 0 0
5 5 5 7 7 6 3 1 0 2 3 4 4 5 4 2 1 1 1 1 1 1 1 1 2 2 1 0 0 0 0 0 0 0 0 0 0 0 0 0 0 0 0
8 7 6 7 8 7 3 1 0 1 2 3 4 5 6 5 4 2 2 2 2 1 0 0 1 1 1 0 0 0 0 0 0 0 0 0 0 0 0 0 0 0 0
8 7 6 7 7 6 3 0 0 0 0 1 2 4 5 6 4 2 1 3 2 1 0 0 0 0 0 0 0 0 0 1 1 1 1 0 0 0 0 0 0 0 0
5 5 6 6 6 5 3 1 0 0 0 0 1 3 4 4 3 1 1 2 2 1 0 0 0 0 0 0 0 0 1 2 2 1 1 0 0 0 0 0 0 0 0
Wind_Speed
1 1 1 1 1 1 1 2 2 2 3 2 2 2 1 0 0 1 1 3 5 6 7 8 8 8 8 8 8 8 8 8 8 7 7 7 7 7 7 7 7 8 8
1 0 0 1 1 1 1 1 2 2 2 2 2 2 1 1 0 0 1 2 4 5 6 8 8 9 9 9 9 9 8 8 8 8 8 8 7 7 6 6 6 7 7
1 1 0 0 1 1 1 1 2 2 2 2 2 2 1 1 1 1 1 1 2 4 6 7 8 8 9 10 10 9 9 8 8 8 8 8 7 7 7 6 6 6 6
2 1 1 0 0 1 1 1 1 2 2 1 1 1 1 1 1 1 1 1 1 1 3 5 6 7 9 10 10 10 9 8 9 9 8 8 8 8 7 7 7 7 7
2 1 1 1 1 1 1 1 1 1 1 1 1 1 1 1 1 1 1 1 1 1 1 2 4 5 8 9 10 9 9 9 9 9 9 9 8 8 8 8 8 7 7
1 2 1 1 1 1 1 1 1 1 0 0 1 2 2 1 1 1 1 0 1 1 1 1 2 2 5 7 7 8 8 8 9 9 9 9 9 9 8 8 7 7 8
1 2 1 1 1 1 1 2 1 1 1 1 1 2 2 2 1 1 1 1 1 1 0 1 1 1 1 3 4 5 5 6 7 8 9 9 9 9 9 8 8 8 8
1 2 2 1 1 1 1 1 1 1 0 1 1 1 2 3 2 2 1 1 1 1 1 1 0 0 0 0 1 3 4 4 6 7 8 8 9 9 8 9 8 8 9
1 1 2 2 1 2 1 1 2 2 1 0 1 2 1 1 2 2 1 2 2 2 1 1 1 0 0 0 1 1 2 3 4 5 6 7 7 7 8 9 9 8 9
1 2 2 2 2 2 2 2 2 2 2 1 0 0 1 2 1 1 1 1 1 1 1 1 1 1 1 0 1 1 1 1 2 3 3 4 5 6 8 8 9 9 9
1 1 2 2 2 2 2 2 1 2 2 2 1 1 0 0 1 1 2 1 1 1 1 1 0 0 1 1 0 1 1 1 1 1 2 3 3 4 5 6 7 8 9
0 0 1 1 2 2 2 2 2 2 2 2 1 1 1 1 1 2 2 1 1 1 1 1 0 0 0 0 1 1 0 1 1 1 1 2 3 3 3 4 5 6 6
1 1 1 1 1 1 2 2 2 2 2 2 2 2 2 2 1 2 2 1 1 1 1 1 1 1 1 0 1 1 1 1 1 1 0 1 2 3 3 4 4 5 5
2 1 1 1 1 1 1 2 2 2 2 2 2 2 1 2 2 2 2 2 1 1 1 1 1 1 1 1 1 2 1 1 1 1 1 1 2 2 3 3 4 4 4
1 1 1 1 1 1 2 2 1 2 2 2 2 2 2 2 2 2 2 2 2 2 2 2 1 1 1 1 1 1 1 1 1 1 1 2 2 3 3 3 4 4 4
1 1 1 1 1 1 1 2 1 1 2 2 2 2 2 2 1 1 1 1 2 2 2 1 1 1 1 1 0 1 1 1 1 1 1 1 1 2 2 3 3 4 4
2 2 1 1 1 1 1 1 2 2 2 2 2 2 3 2 1 1 1 1 1 2 2 2 1 1 1 1 1 1 1 1 1 1 2 1 1 1 1 2 2 3 4
1 2 1 1 2 2 2 2 2 2 3 3 3 3 3 2 2 2 2 2 2 2 3 2 1 1 2 2 1 1 1 1 1 1 1 1 1 1 1 1 2 2 3
2 1 1 2 2 2 2 2 3 3 3 4 4 4 3 3 3 2 3 2 2 2 2 2 2 1 1 1 1 1 1 1 2 2 2 1 1 1 1 2 2 2 2
2 2 2 2 2 2 2 2 2 3 3 3 4 4 4 5 5 4 3 4 3 2 2 2 2 1 1 1 1 1 1 1 1 2 1 1 1 1 2 2 3 2 2
3 2 2 2 2 2 2 2 2 3 3 3 3 4 5 5 6 5 4 4 4 3 3 3 2 1 2 1 2 2 2 1 2 1 1 1 1 1 2 2 3 3 3
3 2 3 3 3 3 3 3 3 3 3 3 4 4 4 5 6 6 7 7 7 6 5 4 3 3 4 3 2 2 1 1 1 1 1 2 1 2 2 2 2 3 4
3 3 3 3 4 4 5 4 4 3 3 4 4 4 4 4 5 4 5 6 7 8 8 6 5 5 5 4 4 3 3 2 2 2 1 2 1 2 2 2 3 3 4
3 3 4 4 4 4 5 5 5 3 3 4 5 5 5 5 5 5 4 4 5 6 7 6 6 6 5 4 5 5 4 2 1 1 2 2 2 2 2 2 2 3 4
3 3 3 3 3 4 5 5 4 2 3 5 5 5 5 5 6 6 5 5 4 4 4 6 6 5 5 5 4 3 3 2 1 2 2 2 1 1 2 2 2 3 4
3 3 3 3 4 5 6 6 4 2 3 4 4 4 5 5 5 6 5 5 5 4 3 3 3 4 4 5 6 6 5 4 2 2 2 2 1 1 1 1 1 1 2
Wind_Direction
100 50 8 359 359 2 11 17 20 28 35 34 32 53 42 50 193 210 190 203 205 204 202 199 199 200 199 199 199 196 196 197 200 198 196 197 200 200 200 205 207 206 205
147 115 359 345 350 4 18 37 33 36 30 30 30 40 31 13 355 262 225 219 216 215 208 205 205 206 206 203 200 199 201 200 200 199 202 203 202 202 201 200 199 202 203
164 153 141 331 332 18 35 43 41 45 44 42 29 15 20 9 338 312 280 249 231 223 216 210 211 213 211 208 205 205 207 204 203 204 206 205 203 205 204 204 203 201 198
180 166 171 258 355 53 65 68 48 48 39 31 9 342 352 350 335 316 291 254 239 235 222 216 220 221 216 213 211 211 209 205 203 205 208 207 208 210 206 207 207 204 201
182 165 184 203 133 93 83 102 74 76 47 16 355 353 353 335 319 317 316 288 263 255 243 231 231 233 227 221 218 217 214 209 204 206 209 209 210 210 207 208 206 206 204
172 161 174 185 148 130 117 110 112 72 94 351 11 8 352 338 341 336 314 338 307 281 267 261 251 251 240 231 222 223 221 216 208 208 210 213 214 213 211 208 206 207 207
172 158 169 164 155 154 163 151 138 115 72 67 55 8 357 2 10 0 355 356 338 315 299 268 260 263 255 235 222 222 223 222 215 212 216 217 219 218 215 210 208 211 210
193 173 168 170 171 155 137 138 134 128 116 99 105 62 358 350 357 10 16 26 20 43 43 33 18 313 283 244 236 229 227 238 227 221 220 221 223 219 215 214 211 212 212
185 169 163 161 167 157 163 170 160 158 175 179 136 151 155 242 311 341 8 23 20 30 12 19 44 24 271 269 283 264 252 255 237 233 227 221 215 214 214 216 213 212 213
170 165 162 159 158 150 164 193 163 164 162 188 241 227 191 178 191 313 338 2 8 5 341 339 358 13 34 58 53 17 321 286 236 239 234 222 217 216 216 217 216 214 212
164 165 159 149 151 155 166 170 158 160 166 176 184 186 172 149 199 204 271 315 341 320 318 309 312 45 63 68 30 34 16 355 309 243 238 223 218 219 220 218 215 215 215
295 219 174 170 177 178 184 187 183 174 179 178 179 169 171 178 197 197 223 258 283 294 305 305 294 266 226 229 282 3 358 25 5 312 272 243 222 213 213 216 210 209 210
238 252 220 195 196 199 193 181 174 187 193 188 196 200 200 211 191 183 185 207 245 288 303 306 281 279 266 232 278 314 339 22 13 10 318 284 240 222 218 217 213 214 216
228 230 206 194 194 199 200 173 173 195 191 201 211 201 204 224 207 195 186 174 207 278 291 282 279 258 281 273 287 289 293 331 342 352 313 293 268 237 215 213 211 208 207
217 196 200 208 214 205 201 184 188 200 188 202 216 214 218 228 211 215 201 188 182 215 252 267 259 272 277 268 284 271 272 329 333 330 322 284 262 241 221 216 213 203 190
209 183 216 219 221 220 202 188 190 188 188 215 209 205 228 234 222 209 198 202 198 194 233 249 257 287 277 269 282 273 271 321 309 301 304 315 294 254 223 212 210 201 196
202 200 209 223 232 238 211 190 210 196 203 225 224 211 226 220 208 208 182 182 192 180 216 269 264 279 250 258 297 289 270 273 294 293 286 291 295 262 220 197 194 200 200
226 221 208 218 233 232 215 204 217 211 211 225 232 223 230 216 215 211 184 196 208 203 199 226 252 267 260 242 250 252 269 273 274 286 282 278 250 220 206 202 201 200 202
216 219 207 218 241 247 235 222 211 217 221 227 227 222 224 207 223 220 202 203 211 206 197 202 233 250 271 259 244 259 264 279 279 282 264 266 255 233 212 214 212 195 194
210 220 227 232 237 241 241 233 220 225 233 238 235 229 226 215 217 216 211 208 199 191 193 196 214 237 254 252 198 228 276 288 288 293 302 306 279 248 227 218 218 203 197
224 219 227 251 258 248 243 235 239 244 240 248 250 242 235 223 219 214 210 201 191 188 190 195 209 221 231 215 221 226 247 278 278 257 278 291 292 279 261 240 227 212 200
236 218 224 235 247 255 264 248 237 253 253 245 252 256 247 234 229 223 219 206 194 192 196 198 208 217 230 224 220 213 220 242 264 246 246 279 268 267 271 249 234 220 209
240 237 235 231 241 251 256 256 247 240 250 250 244 245 251 245 229 224 224 223 220 218 206 200 207 221 221 211 199 210 214 222 241 236 227 261 262 265 265 260 239 227 222
236 240 241 237 242 254 253 257 253 245 255 259 249 240 240 247 234 218 220 225 229 229 221 215 216 225 221 210 202 204 209 215 258 239 209 233 246 258 274 267 254 231 228
238 239 243 240 246 261 255 249 238 243 260 267 260 246 240 242 238 218 210 223 235 241 229 224 224 227 224 214 197 180 186 190 234 242 199 215 236 260 271 265 258 246 238
237 244 246 236 237 254 257 247 231 226 253 268 271 260 245 240 238 216 210 211 222 230 220 218 225 232 228 215 201 198 194 196 211 238 199 192 208 213 255 253 262 266 254